Location: El Conde
(10.2895°N, 67.2409°W)
Time: 19:06:56
(UTC+00:00)

SL-08 R/B - Pass Details

Date: 19 May 2024
Orbit: 671 x 733 km, 98.5° (Epoch: 12 June)

Event Time Altitude Azimuth Distance (km) Brightness Sun altitude
Rises 23:02:24 0° 7° (N) 3,146 6.9 -5.0°
Reaches altitude 10° 23:04:42 10° 5° (N) 2,221 6.1 -5.5°
Maximum altitude 23:09:33 68° 283° (WNW) 780 3.9 -6.6°
Drops below altitude 10° 23:14:20 10° 201° (SSW) 2,195 5.9 -7.7°
Sets 23:16:36 0° 198° (SSW) 3,106 6.6 -8.2°
